BHE100 ZSNJ-ZBAD

Flight info

Callsign BHE100
Flight time 1h 29m
Altitude 38100
Route OF71X OF A470 DPX A593 DALIM W157 AVBOX AVBOX5L
Aircraft A320/M-SDE3FGHIRWY/LB1

Departure

Time 2026-05-05 01:19
Airport Nanjing Lukou International Airport (ZSNJ)

Arrival

Time 2026-05-05 02:49
Airport Beijing Daxing International Airport (ZBAD)
Time Latitude Longitude Altitude Speed Heading
2026-05-05 00:55 31.72961 118.86889 59 ft 0 kts 328°
2026-05-05 01:09 31.72944 118.86901 56 ft 4 kts 326°
2026-05-05 01:10 31.72922 118.86919 51 ft 4 kts 319°
2026-05-05 01:10 31.72904 118.86942 50 ft 4 kts 301°
2026-05-05 01:10 31.72898 118.86966 51 ft 3 kts 242°
2026-05-05 01:10 31.72899 118.86970 51 ft 0 kts 237°
2026-05-05 01:12 31.72897 118.86967 58 ft 2 kts 237°
2026-05-05 01:12 31.72867 118.86954 54 ft 7 kts 175°
2026-05-05 01:13 31.72824 118.86996 57 ft 8 kts 140°
2026-05-05 01:13 31.72774 118.87035 56 ft 11 kts 149°
2026-05-05 01:13 31.72722 118.87001 57 ft 9 kts 238°
2026-05-05 01:13 31.72670 118.86903 59 ft 21 kts 238°
2026-05-05 01:14 31.72579 118.86735 55 ft 26 kts 238°
2026-05-05 01:14 31.72481 118.86548 56 ft 28 kts 237°
2026-05-05 01:14 31.72391 118.86384 56 ft 25 kts 238°
2026-05-05 01:14 31.72296 118.86207 55 ft 26 kts 238°
2026-05-05 01:15 31.72199 118.86023 56 ft 24 kts 239°
2026-05-05 01:15 31.72105 118.85847 56 ft 26 kts 237°
2026-05-05 01:15 31.72004 118.85662 55 ft 24 kts 237°
2026-05-05 01:15 31.71911 118.85487 55 ft 26 kts 238°
2026-05-05 01:16 31.71810 118.85299 58 ft 28 kts 237°
2026-05-05 01:16 31.71707 118.85106 54 ft 26 kts 239°
2026-05-05 01:16 31.71622 118.84948 56 ft 20 kts 236°
2026-05-05 01:16 31.71559 118.84827 53 ft 7 kts 238°
2026-05-05 01:17 31.71536 118.84784 54 ft 6 kts 238°
2026-05-05 01:17 31.71515 118.84748 58 ft 5 kts 231°
2026-05-05 01:17 31.71491 118.84733 58 ft 3 kts 188°
2026-05-05 01:17 31.71461 118.84747 57 ft 6 kts 147°
2026-05-05 01:18 31.71428 118.84771 56 ft 5 kts 147°
2026-05-05 01:18 31.71392 118.84798 54 ft 10 kts 147°
2026-05-05 01:18 31.71361 118.84844 60 ft 6 kts 91°
2026-05-05 01:18 31.71383 118.84884 60 ft 6 kts 56°
2026-05-05 01:19 31.71454 118.85016 55 ft 53 kts 58°
2026-05-05 01:19 31.71808 118.85672 54 ft 133 kts 58°
2026-05-05 01:19 31.72397 118.86778 321 ft 171 kts 57°
2026-05-05 01:19 31.73034 118.87970 1181 ft 174 kts 59°
2026-05-05 01:20 31.73685 118.89194 2011 ft 178 kts 60°
2026-05-05 01:20 31.74353 118.90448 2694 ft 183 kts 60°
2026-05-05 01:20 31.75039 118.91722 3331 ft 188 kts 60°
2026-05-05 01:20 31.75774 118.93103 3684 ft 210 kts 60°
2026-05-05 01:21 31.76581 118.94624 4040 ft 234 kts 60°
2026-05-05 01:21 31.77473 118.96306 4642 ft 245 kts 59°
2026-05-05 01:21 31.78375 118.98004 5635 ft 245 kts 59°
2026-05-05 01:21 31.79279 118.99701 6592 ft 245 kts 59°
2026-05-05 01:22 31.80192 119.01416 7450 ft 249 kts 58°
2026-05-05 01:22 31.81116 119.03153 8293 ft 253 kts 59°
2026-05-05 01:22 31.82054 119.04918 9146 ft 256 kts 58°
2026-05-05 01:22 31.83005 119.06711 10019 ft 260 kts 59°
2026-05-05 01:23 31.83970 119.08533 10794 ft 265 kts 58°
2026-05-05 01:23 31.84952 119.10386 11549 ft 269 kts 57°
2026-05-05 01:23 31.86110 119.12131 12302 ft 273 kts 38°
2026-05-05 01:23 31.87763 119.13209 13040 ft 273 kts 12°
2026-05-05 01:24 31.89637 119.13356 13801 ft 270 kts 346°
2026-05-05 01:24 31.91361 119.12569 14482 ft 266 kts 322°
2026-05-05 01:24 31.92643 119.11035 15171 ft 264 kts 299°
2026-05-05 01:24 31.93282 119.09021 15854 ft 264 kts 276°
2026-05-05 01:25 31.93207 119.06861 16544 ft 267 kts 260°
2026-05-05 01:25 31.92673 119.04757 17193 ft 274 kts 247°
2026-05-05 01:25 31.91811 119.02699 17699 ft 284 kts 245°
2026-05-05 01:25 31.90915 119.00604 18355 ft 289 kts 245°
2026-05-05 01:26 31.90008 118.98475 18950 ft 292 kts 245°
2026-05-05 01:26 31.89092 118.96320 19552 ft 296 kts 245°
2026-05-05 01:26 31.88169 118.94142 20155 ft 299 kts 245°
2026-05-05 01:26 31.87263 118.91927 20746 ft 302 kts 251°
2026-05-05 01:27 31.86889 118.89537 21298 ft 303 kts 272°
2026-05-05 01:27 31.87324 118.87111 21861 ft 306 kts 294°
2026-05-05 01:27 31.88528 118.85002 22118 ft 322 kts 316°
2026-05-05 01:27 31.90480 118.83577 22256 ft 343 kts 339°
2026-05-05 01:28 31.92839 118.82788 22394 ft 361 kts 343°
2026-05-05 01:28 31.95317 118.82011 22528 ft 377 kts 343°
2026-05-05 01:28 31.97705 118.81264 22652 ft 391 kts 343°
2026-05-05 01:28 32.00382 118.80418 22895 ft 403 kts 343°
2026-05-05 01:29 32.03098 118.79533 23357 ft 407 kts 342°
2026-05-05 01:29 32.05839 118.78616 23824 ft 410 kts 342°
2026-05-05 01:29 32.08593 118.77680 24254 ft 413 kts 342°
2026-05-05 01:29 32.11361 118.76737 24671 ft 416 kts 342°
2026-05-05 01:30 32.14154 118.75791 25074 ft 418 kts 342°
2026-05-05 01:30 32.16957 118.74843 25463 ft 421 kts 342°
2026-05-05 01:30 32.19784 118.73891 25858 ft 423 kts 342°
2026-05-05 01:30 32.22630 118.72934 26248 ft 426 kts 342°
2026-05-05 01:31 32.25453 118.71984 26626 ft 428 kts 342°
2026-05-05 01:31 32.28332 118.71016 27005 ft 431 kts 342°
2026-05-05 01:31 32.31222 118.70044 27381 ft 433 kts 342°
2026-05-05 01:31 32.34128 118.69065 27746 ft 436 kts 342°
2026-05-05 01:32 32.37050 118.68082 28094 ft 438 kts 342°
2026-05-05 01:32 32.39998 118.67087 28435 ft 440 kts 342°
2026-05-05 01:32 32.42947 118.66087 28766 ft 442 kts 342°
2026-05-05 01:32 32.45912 118.65083 29099 ft 444 kts 342°
2026-05-05 01:33 32.48890 118.64078 29406 ft 446 kts 342°
2026-05-05 01:33 32.51886 118.63069 29705 ft 448 kts 342°
2026-05-05 01:33 32.54894 118.62052 30000 ft 451 kts 342°
2026-05-05 01:33 32.57915 118.61029 30243 ft 453 kts 342°
2026-05-05 01:34 32.60949 118.60001 30463 ft 454 kts 342°
2026-05-05 01:34 32.63998 118.58967 30702 ft 455 kts 342°
2026-05-05 01:34 32.67040 118.57936 31008 ft 454 kts 342°
2026-05-05 01:34 32.70074 118.56895 31308 ft 453 kts 341°
2026-05-05 01:35 32.73101 118.55826 31609 ft 452 kts 340°
2026-05-05 01:35 32.76111 118.54743 31905 ft 452 kts 340°
2026-05-05 01:35 32.79118 118.53652 32218 ft 451 kts 340°
2026-05-05 01:35 32.82118 118.52566 32551 ft 450 kts 340°
2026-05-05 01:36 32.85114 118.51485 32882 ft 449 kts 340°
2026-05-05 01:36 32.88101 118.50410 33203 ft 448 kts 340°
2026-05-05 01:36 32.91083 118.49341 33517 ft 447 kts 340°
2026-05-05 01:36 32.94027 118.48287 33836 ft 446 kts 340°
2026-05-05 01:37 32.97006 118.47222 34137 ft 446 kts 340°
2026-05-05 01:37 32.99976 118.46163 34398 ft 445 kts 340°
2026-05-05 01:37 33.02947 118.45104 34660 ft 445 kts 339°
2026-05-05 01:37 33.05909 118.44047 34916 ft 444 kts 339°
2026-05-05 01:38 33.08868 118.42987 35165 ft 444 kts 339°
2026-05-05 01:38 33.11825 118.41924 35402 ft 443 kts 339°
2026-05-05 01:38 33.14782 118.40859 35638 ft 443 kts 339°
2026-05-05 01:38 33.17729 118.39795 35871 ft 442 kts 339°
2026-05-05 01:39 33.19680 118.39088 36025 ft 442 kts 339°
2026-05-05 01:39 33.22630 118.38018 36254 ft 442 kts 339°
2026-05-05 01:39 33.25569 118.36956 36467 ft 441 kts 339°
2026-05-05 01:39 33.28509 118.35899 36680 ft 441 kts 339°
2026-05-05 01:40 33.31442 118.34844 36920 ft 440 kts 339°
2026-05-05 01:40 33.35323 118.33443 37215 ft 439 kts 339°
2026-05-05 01:40 33.37298 118.32729 37358 ft 439 kts 339°
2026-05-05 01:40 33.40223 118.31672 37561 ft 438 kts 339°
2026-05-05 01:41 33.43139 118.30619 37762 ft 438 kts 339°
2026-05-05 01:41 33.46053 118.29568 37950 ft 438 kts 339°
2026-05-05 01:41 33.48972 118.28513 38101 ft 438 kts 339°
2026-05-05 01:41 33.51891 118.27456 38127 ft 438 kts 339°
2026-05-05 01:42 33.57730 118.25341 38136 ft 438 kts 339°
2026-05-05 01:42 33.63562 118.23222 38117 ft 438 kts 339°
2026-05-05 01:43 33.69350 118.21113 38116 ft 437 kts 339°
2026-05-05 01:43 33.75210 118.18979 38120 ft 437 kts 339°
2026-05-05 01:44 33.80999 118.16871 38119 ft 438 kts 339°
2026-05-05 01:44 33.86836 118.14746 38143 ft 438 kts 339°
2026-05-05 01:45 33.92670 118.12624 38134 ft 438 kts 339°
2026-05-05 01:45 33.98498 118.10504 38134 ft 437 kts 339°
2026-05-05 01:46 34.04333 118.08386 38126 ft 437 kts 339°
2026-05-05 01:46 34.10166 118.06269 38145 ft 437 kts 340°
2026-05-05 01:47 34.15999 118.04141 38134 ft 437 kts 340°
2026-05-05 01:47 34.21822 118.02023 38132 ft 437 kts 340°
2026-05-05 01:48 34.27610 117.99919 38131 ft 436 kts 340°
2026-05-05 01:48 34.33436 117.97823 38143 ft 436 kts 340°
2026-05-05 01:49 34.39265 117.95757 38137 ft 436 kts 340°
2026-05-05 01:49 34.45088 117.93681 38131 ft 436 kts 340°
2026-05-05 01:50 34.50902 117.91599 38125 ft 435 kts 340°
2026-05-05 01:50 34.56714 117.89518 38124 ft 435 kts 340°
2026-05-05 01:51 34.62523 117.87431 38132 ft 435 kts 340°
2026-05-05 01:51 34.68337 117.85341 38128 ft 436 kts 340°
2026-05-05 01:52 34.74150 117.83256 38119 ft 436 kts 340°
2026-05-05 01:52 34.79968 117.81164 38119 ft 435 kts 340°
2026-05-05 01:53 34.85783 117.79057 38140 ft 435 kts 340°
2026-05-05 01:53 34.91580 117.76925 38129 ft 435 kts 340°
2026-05-05 01:54 34.97377 117.74798 38120 ft 434 kts 340°
2026-05-05 01:54 35.03127 117.72690 38120 ft 434 kts 340°
2026-05-05 01:55 35.08916 117.70565 38122 ft 434 kts 340°
2026-05-05 01:55 35.14701 117.68442 38116 ft 434 kts 340°
2026-05-05 01:56 35.20496 117.66320 38112 ft 434 kts 340°
2026-05-05 01:56 35.26278 117.64193 38109 ft 433 kts 340°
2026-05-05 01:57 35.32055 117.62063 38104 ft 433 kts 340°
2026-05-05 01:57 35.37828 117.59932 38110 ft 433 kts 340°
2026-05-05 01:58 35.43571 117.57813 38099 ft 433 kts 340°
2026-05-05 01:58 35.49348 117.55680 38098 ft 433 kts 340°
2026-05-05 01:59 35.55123 117.53540 38093 ft 433 kts 340°
2026-05-05 01:59 35.60889 117.51406 38092 ft 433 kts 340°
2026-05-05 02:00 35.66666 117.49262 38090 ft 433 kts 340°
2026-05-05 02:00 35.72435 117.47111 38082 ft 433 kts 340°
2026-05-05 02:01 35.78207 117.44955 38085 ft 433 kts 340°
2026-05-05 02:01 35.83975 117.42798 38095 ft 433 kts 340°
2026-05-05 02:02 35.89752 117.40642 38085 ft 433 kts 340°
2026-05-05 02:02 35.95528 117.38480 38083 ft 433 kts 340°
2026-05-05 02:03 36.01296 117.36318 38083 ft 434 kts 340°
2026-05-05 02:03 36.07041 117.34182 38085 ft 434 kts 341°
2026-05-05 02:04 36.12832 117.32055 38070 ft 434 kts 341°
2026-05-05 02:04 36.18632 117.29920 38068 ft 434 kts 341°
2026-05-05 02:05 36.24427 117.27775 38061 ft 434 kts 341°
2026-05-05 02:05 36.30208 117.25614 38063 ft 434 kts 341°
2026-05-05 02:06 36.35993 117.23458 38059 ft 434 kts 341°
2026-05-05 02:06 36.41780 117.21277 38044 ft 433 kts 338°
2026-05-05 02:07 36.47306 117.18439 38035 ft 432 kts 335°
2026-05-05 02:07 36.52862 117.15549 38019 ft 432 kts 335°
2026-05-05 02:08 36.58408 117.12667 38027 ft 432 kts 335°
2026-05-05 02:08 36.63951 117.09781 38020 ft 431 kts 335°
2026-05-05 02:09 36.68837 117.07230 38014 ft 431 kts 335°
2026-05-05 02:09 36.74370 117.04337 38014 ft 431 kts 335°
2026-05-05 02:10 36.79909 117.01438 38008 ft 431 kts 335°
2026-05-05 02:10 36.85435 116.98543 38003 ft 430 kts 335°
2026-05-05 02:11 36.90959 116.95634 37998 ft 430 kts 335°
2026-05-05 02:11 36.96436 116.92752 38001 ft 430 kts 335°
2026-05-05 02:12 37.04699 116.88395 37992 ft 429 kts 335°
2026-05-05 02:13 37.10209 116.85482 37993 ft 429 kts 335°
2026-05-05 02:13 37.15698 116.82582 37996 ft 428 kts 335°
2026-05-05 02:14 37.21187 116.79680 37990 ft 427 kts 337°
2026-05-05 02:14 37.26865 116.77449 37980 ft 428 kts 341°
2026-05-05 02:15 37.32567 116.75311 37982 ft 427 kts 341°
2026-05-05 02:15 37.38262 116.73163 37979 ft 426 kts 341°
2026-05-05 02:16 37.43935 116.71006 37976 ft 426 kts 341°
2026-05-05 02:16 37.49605 116.68851 37974 ft 425 kts 341°
2026-05-05 02:17 37.55268 116.66700 37978 ft 425 kts 341°
2026-05-05 02:17 37.60928 116.64543 37976 ft 424 kts 341°
2026-05-05 02:18 37.66535 116.62410 37969 ft 424 kts 341°
2026-05-05 02:18 37.72183 116.60258 37958 ft 423 kts 341°
2026-05-05 02:18 37.75004 116.59184 37693 ft 423 kts 341°
2026-05-05 02:19 37.77825 116.58108 37418 ft 423 kts 342°
2026-05-05 02:19 37.80633 116.57033 37157 ft 422 kts 342°
2026-05-05 02:19 37.83449 116.55951 36878 ft 422 kts 341°
2026-05-05 02:19 37.85313 116.55233 36704 ft 422 kts 342°
2026-05-05 02:20 37.89035 116.53802 36355 ft 422 kts 342°
2026-05-05 02:20 37.91848 116.52721 36098 ft 423 kts 342°
2026-05-05 02:20 37.93752 116.51990 35925 ft 423 kts 342°
2026-05-05 02:20 37.97381 116.50219 35584 ft 422 kts 332°
2026-05-05 02:21 37.99907 116.48310 35335 ft 422 kts 324°
2026-05-05 02:21 38.01489 116.46861 35172 ft 423 kts 324°
2026-05-05 02:21 38.03872 116.44674 34929 ft 424 kts 324°
2026-05-05 02:21 38.06264 116.42481 34685 ft 424 kts 324°
2026-05-05 02:22 38.08663 116.40282 34442 ft 425 kts 324°
2026-05-05 02:22 38.11063 116.38083 34198 ft 426 kts 324°
2026-05-05 02:22 38.13463 116.35881 33784 ft 426 kts 324°
2026-05-05 02:22 38.15886 116.33657 32586 ft 433 kts 324°
2026-05-05 02:23 38.18339 116.31402 31430 ft 437 kts 324°
2026-05-05 02:23 38.20834 116.29168 30361 ft 440 kts 328°
2026-05-05 02:23 38.23582 116.27439 29175 ft 443 kts 340°
2026-05-05 02:23 38.26548 116.26472 28495 ft 436 kts 350°
2026-05-05 02:24 38.29556 116.26208 27754 ft 432 kts
2026-05-05 02:24 38.32525 116.26682 27023 ft 430 kts 11°
2026-05-05 02:24 38.35371 116.27648 26312 ft 426 kts 13°
2026-05-05 02:24 38.38219 116.28637 25606 ft 422 kts 13°
2026-05-05 02:25 38.41045 116.29617 24902 ft 419 kts 13°
2026-05-05 02:25 38.43852 116.30583 24214 ft 417 kts 13°
2026-05-05 02:25 38.46644 116.31541 23537 ft 414 kts 13°
2026-05-05 02:25 38.49419 116.32490 22817 ft 411 kts 13°
2026-05-05 02:26 38.52170 116.33434 22194 ft 406 kts 13°
2026-05-05 02:26 38.54885 116.34372 21612 ft 402 kts 13°
2026-05-05 02:26 38.57572 116.35302 21053 ft 398 kts 13°
2026-05-05 02:26 38.60234 116.36227 20507 ft 395 kts 13°
2026-05-05 02:27 38.62871 116.37146 19996 ft 391 kts 13°
2026-05-05 02:27 38.65461 116.38174 19489 ft 389 kts 19°
2026-05-05 02:27 38.67952 116.39500 18987 ft 386 kts 21°
2026-05-05 02:27 38.70431 116.40825 18483 ft 384 kts 21°
2026-05-05 02:28 38.72887 116.42139 17941 ft 382 kts 21°
2026-05-05 02:28 38.75334 116.43453 17389 ft 380 kts 21°
2026-05-05 02:28 38.77763 116.44757 16867 ft 377 kts 21°
2026-05-05 02:28 38.80174 116.46048 16340 ft 374 kts 21°
2026-05-05 02:29 38.82574 116.47333 15812 ft 373 kts 21°
2026-05-05 02:29 38.84963 116.48611 15270 ft 371 kts 21°
2026-05-05 02:29 38.87345 116.49889 14742 ft 371 kts 21°
2026-05-05 02:29 38.89728 116.51168 14203 ft 371 kts 21°
2026-05-05 02:30 38.92111 116.52453 13667 ft 372 kts 21°
2026-05-05 02:30 38.94495 116.53741 13076 ft 371 kts 21°
2026-05-05 02:30 38.96874 116.55027 12516 ft 370 kts 21°
2026-05-05 02:30 38.99243 116.56307 11966 ft 368 kts 21°
2026-05-05 02:31 39.01601 116.57579 11409 ft 367 kts 21°
2026-05-05 02:31 39.03953 116.58848 10847 ft 366 kts 21°
2026-05-05 02:31 39.06296 116.59983 10383 ft 361 kts 13°
2026-05-05 02:31 39.08708 116.60510 10258 ft 343 kts
2026-05-05 02:32 39.11041 116.60421 10137 ft 327 kts 350°
2026-05-05 02:32 39.13261 116.60081 9999 ft 315 kts 350°
2026-05-05 02:32 39.15418 116.59750 9787 ft 308 kts 350°
2026-05-05 02:32 39.17548 116.59419 9670 ft 308 kts 349°
2026-05-05 02:33 39.19675 116.59089 9456 ft 308 kts 349°
2026-05-05 02:33 39.21798 116.58759 9041 ft 307 kts 349°
2026-05-05 02:33 39.23918 116.58430 8606 ft 306 kts 349°
2026-05-05 02:33 39.26003 116.58107 8180 ft 306 kts 349°
2026-05-05 02:34 39.28110 116.57780 7794 ft 303 kts 349°
2026-05-05 02:34 39.30201 116.57454 7372 ft 301 kts 348°
2026-05-05 02:34 39.32280 116.57129 6952 ft 300 kts 348°
2026-05-05 02:34 39.34318 116.56813 6716 ft 285 kts 348°
2026-05-05 02:35 39.36212 116.56528 6562 ft 267 kts 347°
2026-05-05 02:35 39.38038 116.56248 6412 ft 262 kts 347°
2026-05-05 02:35 39.39848 116.55964 6258 ft 261 kts 347°
2026-05-05 02:35 39.41652 116.55679 6100 ft 261 kts 347°
2026-05-05 02:36 39.43455 116.55393 5945 ft 260 kts 347°
2026-05-05 02:36 39.45251 116.55108 5792 ft 260 kts 347°
2026-05-05 02:36 39.47041 116.54826 5640 ft 259 kts 347°
2026-05-05 02:36 39.48830 116.54546 5489 ft 258 kts 347°
2026-05-05 02:37 39.50618 116.54267 5331 ft 258 kts 347°
2026-05-05 02:37 39.52402 116.53987 5190 ft 258 kts 347°
2026-05-05 02:37 39.54162 116.53711 5037 ft 257 kts 347°
2026-05-05 02:37 39.55939 116.53434 4895 ft 257 kts 347°
2026-05-05 02:38 39.57710 116.53157 4804 ft 256 kts 347°
2026-05-05 02:38 39.59483 116.52878 4713 ft 256 kts 347°
2026-05-05 02:38 39.61243 116.52605 4607 ft 254 kts 348°
2026-05-05 02:38 39.62997 116.52332 4513 ft 254 kts 348°
2026-05-05 02:39 39.64749 116.52056 4407 ft 254 kts 348°
2026-05-05 02:39 39.66499 116.51779 4316 ft 253 kts 348°
2026-05-05 02:39 39.68249 116.51501 4213 ft 252 kts 348°
2026-05-05 02:39 39.69989 116.51225 4114 ft 251 kts 348°
2026-05-05 02:40 39.71722 116.50950 4013 ft 251 kts 349°
2026-05-05 02:40 39.73457 116.50675 3920 ft 250 kts 349°
2026-05-05 02:40 39.75178 116.50403 3813 ft 248 kts 349°
2026-05-05 02:40 39.76863 116.50140 3725 ft 240 kts 349°
2026-05-05 02:41 39.78442 116.49615 3638 ft 230 kts 326°
2026-05-05 02:41 39.79560 116.48245 3543 ft 219 kts 296°
2026-05-05 02:41 39.79993 116.46402 3455 ft 212 kts 268°
2026-05-05 02:41 39.79853 116.44507 3373 ft 210 kts 260°
2026-05-05 02:42 39.79668 116.42618 3284 ft 210 kts 260°
2026-05-05 02:42 39.79492 116.40784 3196 ft 199 kts 261°
2026-05-05 02:42 39.79324 116.39046 3122 ft 188 kts 258°
2026-05-05 02:42 39.78912 116.37477 3049 ft 181 kts 239°
2026-05-05 02:43 39.78157 116.36227 3012 ft 177 kts 221°
2026-05-05 02:43 39.77124 116.35353 2901 ft 178 kts 204°
2026-05-05 02:43 39.75916 116.34975 2791 ft 181 kts 185°
2026-05-05 02:43 39.74652 116.35094 2720 ft 183 kts 175°
2026-05-05 02:44 39.73392 116.35295 2651 ft 182 kts 174°
2026-05-05 02:44 39.72129 116.35496 2573 ft 184 kts 175°
2026-05-05 02:44 39.70861 116.35697 2503 ft 183 kts 174°
2026-05-05 02:44 39.69602 116.35898 2445 ft 182 kts 175°
2026-05-05 02:45 39.68349 116.36097 2372 ft 181 kts 175°
2026-05-05 02:45 39.67096 116.36296 2304 ft 181 kts 175°
2026-05-05 02:45 39.65844 116.36494 2177 ft 181 kts 173°
2026-05-05 02:45 39.64578 116.36697 2033 ft 182 kts 174°
2026-05-05 02:46 39.63312 116.36894 1998 ft 184 kts 174°
2026-05-05 02:46 39.62040 116.37099 1996 ft 182 kts 174°
2026-05-05 02:46 39.60848 116.37288 1836 ft 163 kts 174°
2026-05-05 02:46 39.59787 116.37456 1688 ft 146 kts 173°
2026-05-05 02:47 39.58810 116.37609 1492 ft 138 kts 172°
2026-05-05 02:47 39.57865 116.37759 1287 ft 136 kts 172°
2026-05-05 02:47 39.56929 116.37906 1123 ft 135 kts 172°
2026-05-05 02:47 39.55998 116.38055 946 ft 134 kts 172°
2026-05-05 02:48 39.55071 116.38201 779 ft 134 kts 173°
2026-05-05 02:48 39.54143 116.38347 621 ft 134 kts 173°
2026-05-05 02:48 39.53219 116.38493 420 ft 134 kts 173°
2026-05-05 02:48 39.52300 116.38643 244 ft 132 kts 174°
2026-05-05 02:49 39.51393 116.38790 105 ft 127 kts 173°
2026-05-05 02:49 39.50650 116.38904 98 ft 83 kts 173°
2026-05-05 02:49 39.50240 116.38971 94 ft 41 kts 175°
2026-05-05 02:49 39.50004 116.39048 97 ft 32 kts 151°
2026-05-05 02:50 39.49860 116.39179 92 ft 26 kts 145°
2026-05-05 02:50 39.49724 116.39274 90 ft 20 kts 170°
2026-05-05 02:50 39.49578 116.39298 89 ft 23 kts 172°
2026-05-05 02:50 39.49414 116.39322 91 ft 25 kts 173°
2026-05-05 02:51 39.49411 116.39322 91 ft 25 kts 173°
2026-05-05 02:51 39.49310 116.39347 89 ft 17 kts 149°
2026-05-05 02:51 39.49200 116.39442 87 ft 21 kts 146°
2026-05-05 02:52 39.49144 116.39571 86 ft 17 kts 81°
2026-05-05 02:52 39.49163 116.39725 86 ft 19 kts 81°
2026-05-05 02:52 39.49176 116.39892 93 ft 18 kts 83°
2026-05-05 02:52 39.49188 116.40026 98 ft 15 kts 83°
2026-05-05 02:53 39.49204 116.40184 90 ft 22 kts 83°
2026-05-05 02:53 39.49220 116.40361 86 ft 13 kts 82°
2026-05-05 02:53 39.49232 116.40444 85 ft 7 kts 71°
2026-05-05 02:53 39.49271 116.40468 87 ft 8 kts 357°
2026-05-05 02:54 39.49356 116.40454 87 ft 15 kts 353°
2026-05-05 02:54 39.49456 116.40440 88 ft 14 kts 354°
2026-05-05 02:54 39.49547 116.40425 88 ft 13 kts 351°
2026-05-05 02:54 39.49631 116.40408 90 ft 12 kts 353°
2026-05-05 02:55 39.49709 116.40398 88 ft 11 kts 354°
2026-05-05 02:55 39.49788 116.40387 87 ft 15 kts 353°
2026-05-05 02:55 39.49842 116.40377 88 ft 18 kts 352°
2026-05-05 02:56 39.49932 116.40363 85 ft 19 kts 354°
2026-05-05 02:56 39.49971 116.40358 87 ft 16 kts 354°
2026-05-05 02:57 39.49994 116.40355 87 ft 16 kts 354°
2026-05-05 02:57 39.50093 116.40344 87 ft 13 kts
2026-05-05 02:57 39.50124 116.40419 87 ft 10 kts 82°
2026-05-05 02:58 39.50127 116.40449 87 ft 9 kts 82°
2026-05-05 02:58 39.50130 116.40481 86 ft 12 kts 84°
2026-05-05 02:58 39.50156 116.40607 86 ft 12 kts 34°
2026-05-05 02:58 39.50263 116.40596 87 ft 18 kts 353°
2026-05-05 02:59 39.50372 116.40585 89 ft 5 kts 14°
2026-05-05 02:59 39.50415 116.40621 89 ft 11 kts 34°
2026-05-05 02:59 39.50501 116.40694 88 ft 15 kts 33°
2026-05-05 02:59 39.50540 116.40801 87 ft 13 kts 66°
2026-05-05 03:00 39.50611 116.40818 88 ft 11 kts 346°
2026-05-05 03:00 39.50664 116.40776 87 ft 8 kts 308°
2026-05-05 03:00 39.50685 116.40747 87 ft 3 kts 314°
2026-05-05 03:00 39.50687 116.40744 86 ft 0 kts 314°